Regional Weather Roundup
Issued by NWS

Home | Current Version | Previous Version | Text Only | Print | Product List | Glossary Off
Versions: 1 2 3 4 5 6 7 8 9 10 11 12 13 14 15 16 17 18 19 20 21 22 23 24 25 26 27 28 29 30 31 32 33 34 35 36 37 38 39 40 41 42 43 44 45 46 47 48 49 50

000
ASUS44 KMEG 231510
RWRTN
TENNESSEE HOURLY STATE WEATHER ROUNDUP
NATIONAL WEATHER SERVICE MEMPHIS TN
1000 AM CDT SUN APR 23 2017

TNZ002-004-019-021-049-052-054-088>092-231600-
WEST TENNESSEE

CITY           SKY/WX    TMP DP  RH WIND       PRES   REMARKS
MEMPHIS INTL   DRIZZLE   54  47  77 N13G20    29.95S
NWS MEMPHIS      N/A     51 N/A N/A MISG        N/A
JACKSON        LGT RAIN  49  47  93 N14       29.92R FOG
DYERSBURG      LGT RAIN  48  45  89 N12       29.97R
SOMERVILLE     CLOUDY    52  48  87 N10G20    29.92S
UNION CITY     CLOUDY    46  45  93 N15G22    29.94S FOG
BOLIVAR        CLOUDY    50  46  87 NW8G15    29.92R
PARIS          CLOUDY    46  41  81 N12       29.92R
HUNTINGDON     CLOUDY    50  46  87 VRB6G15   29.90S
LEXINGTON      PTSUNNY   50  48  93 N9        29.88S FOG
SAVANNAH       PTSUNNY   50  50 100 N12       29.87S FOG
$$

TNZ008-025-027-028-033-062-065-066-231600-
NORTH MIDDLE TENNESSEE

CITY           SKY/WX    TMP DP  RH WIND       PRES   REMARKS
NASHVILLE      DRIZZLE   52  50  93 N9        29.85R
PORTLAND       CLOUDY    50  48  93 N13G22    29.86R
CLARKSVILLE    CLOUDY    48  44  86 N12       29.90R THUNDER
SMYRNA         LGT RAIN  52  51  97 N8        29.85R FOG
COOKEVILLE     MOSUNNY   54  52  94 VRB6      29.81R FOG
CROSSVILLE     RAIN      50  49  96 CALM      29.84R FOG
$$

TNZ061-075-076-078-094-096-097-231600-
SOUTH MIDDLE TENNESSEE

CITY           SKY/WX    TMP DP  RH WIND       PRES   REMARKS
FAYETTEVILLE   CLOUDY    54  52  94 CALM      29.82R
TULLAHOMA      CLOUDY    52  52 100 NW6       29.83R
WINCHESTER     CLOUDY    54  52  94 W3        29.83R
MCMINNVILLE    CLOUDY    54  54 100 N5        29.81R
COLUMBIA       CLOUDY   N/A N/A N/A VRB5      29.83S VSB 1
SHELBYVILLE    CLOUDY    54  54 100 N7        29.84R
$$

TNZ017-018-042-046-047-231600-
NORTHEAST TENNESSEE

CITY           SKY/WX    TMP DP  RH WIND       PRES   REMARKS
TRI CITIES     RAIN      52  51  97 E8        29.91F FOG
ELIZABETHTON   RAIN      55  52  88 VRB7G13   29.92S
$$

TNZ012-013-036-069-073-074-231600-
CENTRAL EAST TENNESSEE

CITY           SKY/WX    TMP DP  RH WIND       PRES   REMARKS
KNOXVILLE      RAIN      58  56  93 NE9       29.80S FOG
OAK RIDGE      HVY RAIN  55  53  93 VRB3      29.83R FOG
DOWNTOWN KNOXV CLOUDY    59  57  94 VRB3      29.81F FOG
GATLINBURG     CLOUDY    57  57 100 NE3       29.82S
MORRISTOWN     CLOUDY    55  55 100 E8G16     29.85S FOG
JACKSBORO      CLOUDY    54  54 100 CALM      29.88R FOG
$$

TNZ083-085-099-231600-
SOUTHEAST TENNESSEE

CITY           SKY/WX    TMP DP  RH WIND       PRES   REMARKS
CHATTANOOGA    LGT RAIN  63  61  93 S6        29.77S FOG
$$

SKY/WX REPORTED AS FAIR MEANS FEW OR NO CLOUDS BELOW
12 THOUSAND FEET.





USA.gov is the U.S. government's official web portal to all federal, state and local government web resources and services.